Time,TemperatureF,DewpointF,PressureIn,WindDirection,WindDirectionDegrees,WindSpeedMPH,WindSpeedGustMPH,Humidity,HourlyPrecipIn,Conditions,Clouds,dailyrainin,SoftwareType,DateUTC
2013-01-13 00:13:00,-21.2,-26.0,30.57,WSW,258,0.0,1.0,77,0.00,,,0.00,weatherlink.com 1.10,2013-01-13 07:13:00,
2013-01-13 00:28:00,-19.9,-25.0,30.57,WSW,258,0.0,1.0,77,0.00,,,0.00,weatherlink.com 1.10,2013-01-13 07:28:00,
2013-01-13 00:43:00,-18.6,-24.0,30.58,WSW,256,0.0,1.0,77,0.00,,,0.00,weatherlink.com 1.10,2013-01-13 07:43:00,
2013-01-13 00:58:00,-17.7,-23.0,30.59,WSW,256,0.0,1.0,77,0.00,,,0.00,weatherlink.com 1.10,2013-01-13 07:58:00,
2013-01-13 01:13:00,-17.5,-23.0,30.59,WSW,256,0.0,1.0,77,0.00,,,0.00,weatherlink.com 1.10,2013-01-13 08:13:00,
2013-01-13 01:28:00,-17.3,-22.0,30.60,WSW,256,0.0,0.0,77,0.00,,,0.00,weatherlink.com 1.10,2013-01-13 08:28:00,
2013-01-13 01:43:00,-18.2,-24.0,30.61,WSW,256,0.0,1.0,76,0.00,,,0.00,weatherlink.com 1.10,2013-01-13 08:43:00,
2013-01-13 01:58:00,-19.6,-25.0,30.61,West,267,0.0,1.0,75,0.00,,,0.00,weatherlink.com 1.10,2013-01-13 08:58:00,
2013-01-13 02:13:00,-20.5,-26.0,30.62,West,276,0.0,1.0,75,0.00,,,0.00,weatherlink.com 1.10,2013-01-13 09:13:00,
2013-01-13 02:29:00,-21.4,-27.0,30.62,WSW,251,0.0,1.0,75,0.00,,,0.00,weatherlink.com 1.10,2013-01-13 09:29:00,
2013-01-13 02:44:00,-22.0,-27.0,30.61,WSW,256,0.0,1.0,76,0.00,,,0.00,weatherlink.com 1.10,2013-01-13 09:44:00,
2013-01-13 02:59:00,-23.0,-29.0,30.62,West,264,0.0,1.0,74,0.00,,,0.00,weatherlink.com 1.10,2013-01-13 09:59:00,
2013-01-13 03:14:00,-23.2,-28.0,30.63,West,261,0.0,1.0,76,0.00,,,0.00,weatherlink.com 1.10,2013-01-13 10:14:00,
2013-01-13 03:29:00,-21.6,-27.0,30.63,WSW,257,0.0,1.0,77,0.00,,,0.00,weatherlink.com 1.10,2013-01-13 10:29:00,
2013-01-13 03:44:00,-20.5,-26.0,30.62,WSW,257,0.0,1.0,77,0.00,,,0.00,weatherlink.com 1.10,2013-01-13 10:44:00,
2013-01-13 03:59:00,-19.6,-25.0,30.62,WSW,256,0.0,1.0,77,0.00,,,0.00,weatherlink.com 1.10,2013-01-13 10:59:00,
2013-01-13 04:14:00,-18.5,-24.0,30.63,West,264,0.0,1.0,77,0.00,,,0.00,weatherlink.com 1.10,2013-01-13 11:14:00,
2013-01-13 04:29:00,-18.6,-24.0,30.63,West,264,0.0,0.0,76,0.00,,,0.00,weatherlink.com 1.10,2013-01-13 11:29:00,
2013-01-13 04:44:00,-18.3,-23.0,30.64,West,264,0.0,1.0,77,0.00,,,0.00,weatherlink.com 1.10,2013-01-13 11:44:00,
2013-01-13 04:59:00,-17.7,-23.0,30.64,West,264,0.0,1.0,77,0.00,,,0.00,weatherlink.com 1.10,2013-01-13 11:59:00,
2013-01-13 05:14:00,-18.1,-23.0,30.64,West,264,0.0,1.0,76,0.00,,,0.00,weatherlink.com 1.10,2013-01-13 12:14:00,
2013-01-13 05:29:00,-18.8,-24.0,30.65,West,264,0.0,1.0,75,0.00,,,0.00,weatherlink.com 1.10,2013-01-13 12:29:00,
2013-01-13 05:44:00,-19.7,-25.0,30.65,WSW,255,0.0,1.0,76,0.00,,,0.00,weatherlink.com 1.10,2013-01-13 12:44:00,
2013-01-13 06:00:00,-19.2,-24.0,30.66,WSW,255,0.0,1.0,78,0.00,,,0.00,weatherlink.com 1.10,2013-01-13 13:00:00,
2013-01-13 06:15:00,-18.9,-24.0,30.66,WSW,255,0.0,1.0,76,0.00,,,0.00,weatherlink.com 1.10,2013-01-13 13:15:00,
2013-01-13 06:30:00,-19.0,-24.0,30.67,WSW,255,0.0,0.0,77,0.00,,,0.00,weatherlink.com 1.10,2013-01-13 13:30:00,
2013-01-13 06:45:00,-18.7,-24.0,30.68,WSW,255,0.0,1.0,77,0.00,,,0.00,weatherlink.com 1.10,2013-01-13 13:45:00,
2013-01-13 07:00:00,-17.7,-23.0,30.68,WSW,255,0.0,1.0,78,0.00,,,0.00,weatherlink.com 1.10,2013-01-13 14:00:00,
2013-01-13 07:15:00,-16.2,-21.0,30.68,WSW,255,0.0,1.0,79,0.00,,,0.00,weatherlink.com 1.10,2013-01-13 14:15:00,
2013-01-13 07:30:00,-15.7,-20.0,30.69,WSW,252,0.0,1.0,79,0.00,,,0.00,weatherlink.com 1.10,2013-01-13 14:30:00,
2013-01-13 07:45:00,-14.6,-20.0,30.69,WSW,254,0.0,1.0,78,0.00,,,0.00,weatherlink.com 1.10,2013-01-13 14:45:00,
2013-01-13 08:00:00,-14.8,-20.0,30.69,WSW,254,0.0,0.0,77,0.00,,,0.00,weatherlink.com 1.10,2013-01-13 15:00:00,
2013-01-13 08:15:00,-16.1,-22.0,30.69,WSW,254,0.0,1.0,75,0.00,,,0.00,weatherlink.com 1.10,2013-01-13 15:15:00,
2013-01-13 08:30:00,-16.9,-22.0,30.69,WSW,252,0.0,0.0,76,0.00,,,0.00,weatherlink.com 1.10,2013-01-13 15:30:00,
2013-01-13 08:45:00,-16.6,-22.0,30.69,WSW,252,0.0,0.0,77,0.00,,,0.00,weatherlink.com 1.10,2013-01-13 15:45:00,
2013-01-13 09:00:00,-15.2,-20.0,30.68,WSW,252,0.0,0.0,79,0.00,,,0.00,weatherlink.com 1.10,2013-01-13 16:00:00,
2013-01-13 09:16:00,-12.3,-17.0,30.68,WSW,252,0.0,0.0,81,0.00,,,0.00,weatherlink.com 1.10,2013-01-13 16:16:00,
2013-01-13 09:31:00,-8.6,-13.0,30.67,WSW,252,0.0,0.0,79,0.00,,,0.00,weatherlink.com 1.10,2013-01-13 16:31:00,
2013-01-13 09:48:00,-6.0,-12.0,30.67,ESE,107,0.0,1.0,75,0.00,,,0.00,weatherlink.com 1.10,2013-01-13 16:48:00,
2013-01-13 10:01:00,-3.7,-10.0,30.67,ESE,107,0.0,1.0,74,0.00,,,0.00,weatherlink.com 1.10,2013-01-13 17:01:00,
2013-01-13 10:16:00,-1.9,-8.0,30.66,ESE,107,1.0,1.0,74,0.00,,,0.00,weatherlink.com 1.10,2013-01-13 17:16:00,
2013-01-13 10:31:00,-0.5,-7.0,30.65,ESE,107,0.0,1.0,73,0.00,,,0.00,weatherlink.com 1.10,2013-01-13 17:31:00,
2013-01-13 10:46:00,1.0,-6.0,30.64,ESE,107,1.0,1.0,71,0.00,,,0.00,weatherlink.com 1.10,2013-01-13 17:46:00,
2013-01-13 11:01:00,1.6,-6.0,30.63,ESE,109,0.0,2.0,70,0.00,,,0.00,weatherlink.com 1.10,2013-01-13 18:01:00,
2013-01-13 11:16:00,2.6,-5.0,30.61,ESE,109,0.0,1.0,69,0.00,,,0.00,weatherlink.com 1.10,2013-01-13 18:16:00,
2013-01-13 11:31:00,4.3,-7.0,30.60,ESE,106,0.0,2.0,61,0.00,,,0.00,weatherlink.com 1.10,2013-01-13 18:31:00,
2013-01-13 11:46:00,4.3,-6.0,30.58,ESE,112,1.0,4.0,63,0.00,,,0.00,weatherlink.com 1.10,2013-01-13 18:46:00,
2013-01-13 12:01:00,4.4,-7.0,30.57,ESE,105,1.0,4.0,59,0.00,,,0.00,weatherlink.com 1.10,2013-01-13 19:01:00,
2013-01-13 12:16:00,4.4,-6.0,30.56,ESE,117,3.0,6.0,61,0.00,,,0.00,weatherlink.com 1.10,2013-01-13 19:16:00,
2013-01-13 12:32:00,5.5,-7.0,30.56,ESE,105,0.0,7.0,57,0.00,,,0.00,weatherlink.com 1.10,2013-01-13 19:32:00,
2013-01-13 12:47:00,5.9,-8.0,30.55,ESE,104,0.0,9.0,52,0.00,,,0.00,weatherlink.com 1.10,2013-01-13 19:47:00,
2013-01-13 13:02:00,7.9,-7.0,30.54,East,101,2.0,9.0,50,0.00,,,0.00,weatherlink.com 1.10,2013-01-13 20:02:00,
2013-01-13 13:17:00,9.1,-8.0,30.53,ESE,102,0.0,8.0,45,0.00,,,0.00,weatherlink.com 1.10,2013-01-13 20:17:00,
2013-01-13 13:32:00,9.8,-8.0,30.53,ESE,105,3.0,6.0,44,0.00,,,0.00,weatherlink.com 1.10,2013-01-13 20:32:00,
2013-01-13 13:47:00,8.9,-11.0,30.52,ESE,113,4.0,12.0,40,0.00,,,0.00,weatherlink.com 1.10,2013-01-13 20:47:00,
2013-01-13 14:02:00,6.9,-11.0,30.53,ESE,123,3.0,6.0,44,0.00,,,0.00,weatherlink.com 1.10,2013-01-13 21:02:00,
2013-01-13 14:17:00,6.3,-11.0,30.53,ESE,107,3.0,5.0,44,0.00,,,0.00,weatherlink.com 1.10,2013-01-13 21:17:00,
2013-01-13 14:32:00,6.4,-9.0,30.53,ESE,109,0.0,6.0,49,0.00,,,0.00,weatherlink.com 1.10,2013-01-13 21:32:00,
2013-01-13 14:48:00,6.1,-9.0,30.54,ESE,105,0.0,5.0,49,0.00,,,0.00,weatherlink.com 1.10,2013-01-13 21:48:00,
2013-01-13 15:02:00,5.9,-9.0,30.55,ESE,103,1.0,3.0,50,0.00,,,0.00,weatherlink.com 1.10,2013-01-13 22:02:00,
2013-01-13 15:17:00,5.9,-8.0,30.55,ESE,105,0.0,3.0,53,0.00,,,0.00,weatherlink.com 1.10,2013-01-13 22:17:00,
2013-01-13 15:32:00,5.5,-5.0,30.55,East,94,0.0,4.0,62,0.00,,,0.00,weatherlink.com 1.10,2013-01-13 22:32:00,
2013-01-13 15:47:00,5.3,-5.0,30.56,East,101,0.0,1.0,63,0.00,,,0.00,weatherlink.com 1.10,2013-01-13 22:47:00,
2013-01-13 16:03:00,4.6,-4.0,30.56,ESE,107,0.0,1.0,69,0.00,,,0.00,weatherlink.com 1.10,2013-01-13 23:03:00,
2013-01-13 16:18:00,4.3,-3.0,30.57,ESE,107,0.0,1.0,71,0.00,,,0.00,weatherlink.com 1.10,2013-01-13 23:18:00,
2013-01-13 16:33:00,3.7,-4.0,30.58,ESE,110,0.0,1.0,71,0.00,,,0.00,weatherlink.com 1.10,2013-01-13 23:33:00,
2013-01-13 16:48:00,3.3,-3.0,30.59,ESE,110,0.0,1.0,74,0.00,,,0.00,weatherlink.com 1.10,2013-01-13 23:48:00,
2013-01-13 17:03:00,2.9,-3.0,30.59,ESE,110,0.0,1.0,76,0.00,,,0.00,weatherlink.com 1.10,2013-01-14 00:03:00,
2013-01-13 17:18:00,2.0,-4.0,30.60,ESE,110,0.0,1.0,77,0.00,,,0.00,weatherlink.com 1.10,2013-01-14 00:18:00,
2013-01-13 17:33:00,1.6,-4.0,30.60,ESE,110,0.0,0.0,77,0.00,,,0.00,weatherlink.com 1.10,2013-01-14 00:33:00,
2013-01-13 17:48:00,0.9,-4.0,30.61,ESE,110,0.0,0.0,78,0.00,,,0.00,weatherlink.com 1.10,2013-01-14 00:48:00,
2013-01-13 18:03:00,0.5,-5.0,30.61,ESE,110,0.0,0.0,78,0.00,,,0.00,weatherlink.com 1.10,2013-01-14 01:03:00,
2013-01-13 18:18:00,-0.2,-5.0,30.62,ESE,110,0.0,0.0,79,0.00,,,0.00,weatherlink.com 1.10,2013-01-14 01:18:00,
2013-01-13 18:33:00,-0.8,-6.0,30.63,ESE,110,0.0,1.0,80,0.00,,,0.00,weatherlink.com 1.10,2013-01-14 01:33:00,
2013-01-13 18:48:00,-0.9,-6.0,30.64,ESE,110,0.0,0.0,80,0.00,,,0.00,weatherlink.com 1.10,2013-01-14 01:48:00,
2013-01-13 19:03:00,-1.3,-6.0,30.64,ESE,110,0.0,0.0,80,0.00,,,0.00,weatherlink.com 1.10,2013-01-14 02:03:00,
2013-01-13 19:19:00,-1.6,-6.0,30.64,ESE,111,0.0,1.0,80,0.00,,,0.00,weatherlink.com 1.10,2013-01-14 02:19:00,
2013-01-13 19:34:00,-1.9,-7.0,30.64,ESE,115,0.0,1.0,80,0.00,,,0.00,weatherlink.com 1.10,2013-01-14 02:34:00,
2013-01-13 19:49:00,-2.3,-7.0,30.64,ESE,117,0.0,1.0,80,0.00,,,0.00,weatherlink.com 1.10,2013-01-14 02:49:00,
2013-01-13 20:04:00,-3.1,-8.0,30.64,ESE,119,0.0,0.0,79,0.00,,,0.00,weatherlink.com 1.10,2013-01-14 03:04:00,
2013-01-13 20:19:00,-4.4,-9.0,30.64,ESE,121,0.0,1.0,79,0.00,,,0.00,weatherlink.com 1.10,2013-01-14 03:19:00,
2013-01-13 20:34:00,-5.8,-11.0,30.64,SE,136,0.0,1.0,78,0.00,,,0.00,weatherlink.com 1.10,2013-01-14 03:34:00,
2013-01-13 20:49:00,-7.6,-13.0,30.64,South,172,0.0,0.0,77,0.00,,,0.00,weatherlink.com 1.10,2013-01-14 03:49:00,
2013-01-13 21:04:00,-9.0,-14.0,30.64,South,179,0.0,0.0,77,0.00,,,0.00,weatherlink.com 1.10,2013-01-14 04:04:00,
2013-01-13 21:19:00,-10.5,-16.0,30.64,South,184,0.0,0.0,77,0.00,,,0.00,weatherlink.com 1.10,2013-01-14 04:19:00,
2013-01-13 21:34:00,-11.5,-17.0,30.64,SW,236,0.0,1.0,78,0.00,,,0.00,weatherlink.com 1.10,2013-01-14 04:34:00,
2013-01-13 21:49:00,-11.8,-17.0,30.64,WSW,248,0.0,1.0,78,0.00,,,0.00,weatherlink.com 1.10,2013-01-14 04:49:00,
2013-01-13 22:04:00,-11.8,-17.0,30.64,WSW,248,0.0,1.0,78,0.00,,,0.00,weatherlink.com 1.10,2013-01-14 05:04:00,
2013-01-13 22:19:00,-11.9,-17.0,30.64,WSW,248,0.0,1.0,77,0.00,,,0.00,weatherlink.com 1.10,2013-01-14 05:19:00,
2013-01-13 22:34:00,-12.8,-18.0,30.64,WSW,248,0.0,1.0,77,0.00,,,0.00,weatherlink.com 1.10,2013-01-14 05:34:00,
2013-01-13 22:50:00,-13.6,-19.0,30.64,WSW,248,0.0,1.0,77,0.00,,,0.00,weatherlink.com 1.10,2013-01-14 05:50:00,
2013-01-13 23:05:00,-14.7,-20.0,30.65,WSW,248,0.0,1.0,77,0.00,,,0.00,weatherlink.com 1.10,2013-01-14 06:05:00,
2013-01-13 23:20:00,-14.8,-20.0,30.65,WSW,248,0.0,1.0,78,0.00,,,0.00,weatherlink.com 1.10,2013-01-14 06:20:00,
2013-01-13 23:35:00,-14.1,-19.0,30.65,WSW,250,0.0,1.0,79,0.00,,,0.00,weatherlink.com 1.10,2013-01-14 06:35:00,
2013-01-13 23:50:00,-12.8,-18.0,30.64,WSW,250,0.0,1.0,79,0.00,,,0.00,weatherlink.com 1.10,2013-01-14 06:50:00,